584  
ASUS41 KOKX 021908  
RWROKX  
 
REGIONAL WEATHER ROUNDUP  
NATIONAL WEATHER SERVICE NEW YORK NY  
200 PM EST FRI DEC 02 2016  
 
NOTE: "FAIR" INDICATES FEW OR NO CLOUDS BELOW 12,000 FEET WITH NO  
SIGNIFICANT WEATHER AND/OR S TO VISIBILITY
.  
 
NYZ071-072-176-178-NJZ106-104-022000-  
NEW YORK CITY METRO AREA  
 
CITY SKY/WX TMP DP RH WIND PRES REMARKS
 
CENTRAL PARK CLOUDY 50 28 42 W10G21 29.88S  
WALL ST HELIPT MOCLDY 52 31 44 VRB6 29.87S  
BRONX BOT GARD N/A 50 28 43 W17 29.87R  
LAGUARDIA APRT MOSUNNY 51 30 44 W20G26 29.85F  
KENNEDY INTL PTSUNNY 52 27 38 W18G28 29.86F  
BREEZY POINT N/A 48 N/A N/A W14G23 N/A  
NEWARK/LIBERTY PTSUNNY 53 27 37 NW20G30 29.87S  
TETERBORO MOSUNNY 51 28 41 W13G23 29.85S  

 
 
NYZ177-179-078>081-022000-  
LONG ISLAND NEW YORK  
 
CITY SKY/WX TMP DP RH WIND PRES REMARKS
 
JONES BEACH N/A 50 N/A N/A W21G30 N/A  
MATINECOCK PT NOT AVBL  
FARMINGDALE PTSUNNY 50 29 44 NW13G23 29.84F  
MACARTHUR/ISP PTSUNNY 51 30 44 W14 29.83S  
SHIRLEY PTSUNNY 50 31 48 W14G23 29.83F  
WESTHAMPTON PTSUNNY 50 31 48 W15G29 29.83F  
SOUTHAMPTON N/A 50 36 57 W13 29.79S  
BRIDGEHAMPTON NOT AVBL  
EAST HAMPTON PTSUNNY 48 31 52 NW10G18 29.81S  
MONTAUK N/A 49 36 61 W9 29.81F  

 
 
NYZ052-065-067-022000-  
HUDSON VALLEY  
 
CITY SKY/WX TMP DP RH WIND PRES REMARKS
 
WHITE PLAINS PTSUNNY 49 29 46 NW16 29.82F  
NEWBURGH MOSUNNY 46 34 61 W23G35 29.83F  
MONTGOMERY MOSUNNY 50 31 48 NW12G22 29.82F  
POUGHKEEPSIE SUNNY 48 31 51 W14 29.82S  
ALBANY PTSUNNY 47 27 45 W12 29.78F  

 
 
NJZ001-105-106-008-010-013-015-019>022-104-022000-  
NEW JERSEY  
 
CITY SKY/WX TMP DP RH WIND PRES REMARKS
 
NEWARK/LIBERTY PTSUNNY 53 27 37 NW20G30 29.87S  
TETERBORO MOSUNNY 51 28 41 W13G23 29.85S  
CALDWELL PTSUNNY 50 28 42 W20G26 29.87S  
SOMERVILLE MOSUNNY 51 28 41 W10G23 29.87F  
LINDEN MOCLDY 50 29 44 W15G24 29.87F  
SUSSEX PTSUNNY 48 30 49 W8 29.85S  
ANDOVER N/A 49 28 44 NW8 29.86F  
TRENTON MOSUNNY 50 29 44 NW12G20 29.90F  
MILLVILLE SUNNY 50 30 46 W18G24 29.95F  
ATLANTIC CITY MOSUNNY 50 28 42 W13 29.94R  
WRIGHTSTOWN PTSUNNY 51 30 45 W17 29.88F  
TOMS RIVER SUNNY 51 30 44 W15G22 29.91F  
BELMAR PTSUNNY N/A N/A N/A W14G23 29.90S  

 
 
PAZ047>061-062-071-022000-  
EASTERN PENNSYLVANIA  
 
CITY SKY/WX TMP DP RH WIND PRES REMARKS
 
PHILADELPHIA MOSUNNY 51 29 42 W24 29.94F  
ALLENTOWN MOSUNNY 50 27 40 W16G26 29.90F  
SCRANTON CLOUDY 46 31 55 W20 29.87S  

 
 
CTZ002-004>006-009-010-012-RIZ004-006-007-MAZ004-011-015-022000-  
SOUTHERN NEW ENGLAND  
IN CT  
 
CITY SKY/WX TMP DP RH WIND PRES REMARKS
 
BRADLEY INTL MOSUNNY 48 28 46 W12G22 29.78F  
HARTFORD PTSUNNY 50 30 46 W8 29.79F  
DANBURY MOSUNNY 48 29 47 W15 29.82F  
WTRBURY/OXFORD PTSUNNY 46 27 46 NW12G21 29.81F  
BRIDGEPORT MOSUNNY N/A N/A N/A NW17 29.82S  
MERIDEN PTSUNNY 52 28 39 NW16G22 29.80S  
NEW HAVEN CLOUDY 49 30 48 NW12G23 29.81S  
CHESTER MOCLDY 48 30 49 W9 29.79S  
GROTON MOSUNNY 52 31 44 NW14 29.79F  
WILIMANTIC CLOUDY 50 31 48 W8 29.78F  
 
IN RI  
 
CITY SKY/WX TMP DP RH WIND PRES REMARKS
 
PROVIDENCE MOSUNNY 50 30 46 NW10G21 29.77F  
BLOCK ISLAND SUNNY 48 35 60 W14G23 29.80S  
WESTERLY PTSUNNY 49 33 54 SW8 29.79F  
IN MA  
 
CITY SKY/WX TMP DP RH WIND PRES REMARKS
 
BOSTON PTSUNNY 50 32 50 W13G25 29.73F  
WORCESTER CLOUDY 42 29 59 SW12 29.74S  
WESTFIELD CLOUDY 48 28 46 W18G25 29.77S  
PROVINCETOWN MOSUNNY 51 35 54 W15 29.73F  
NANTUCKET SUNNY 49 35 58 W17G23 29.76F  

 
 
ANZ330-335-338-340-345-350-353-355-022000-  
COASTAL MARINE OBSERVATIONS  
 
 
STATION/POSITION TIME SKY/WX TEMP WIND PRES VSBY WAVE
 
AIR SEA DIR/SP/G HT/PER  
(UTC) (F) (DEG/KT/KT) (MB) (MI) (FT/S)  
NY HARB ENTRANCE 1850 50 54 280/ 19/ 23 1011.0 3/ 4  
20 S FIRE ISLAND 1850 50 55 290/ 19/ 23 1010.5 5/ 5  
GREAT SOUTH BAY 1830 48 45 N/A  
23 SSW MONTAUK P 1850 49 56 280/ 17/ 19 1010.0 5/ 7  
15 E BARNEGAT LI 1830 54 N/A 4/ 4  
HUDSON CANYON 1750 50 59 1011.9 7/ 7  
KINGS POINT 1848 50 49 1010.5  
EXECUTION ROCKS 1845 52 270/ 16/ 23 N/A  
CENTRAL LI SOUND 1815 50 51 290/ 17/ 21 N/A 4/ 5  
EASTERN LI SOUND NOT AVBL  
ROBBINS REEF 1848 50 310/ 15/ 19 1011.3  

 
 
>>>>>>>>>>>>>>>>>>>>>>>>>>>> KEY <<<<<<<<<<<<<<<<<<<<<<<<<<<  
> <  
> SKY/WX - SKY CONDITION/PRESENT WEATHER <  
> TMP - TEMPERATURE IN FAHRENHEIT <  
> DP - DEW POINT IN FAHRENHEIT <  
> RH - RELATIVE HUMIDITY IN PERCENT <  
> WIND - DIRECTION (FROM) AND SPEED IN MPH <  
> PRES - MEAN SEA LEVEL PRESSURE (INCHES OF HG) <  
> WCI - WIND CHILL INDEX <  
> VSB - VISIBILITY IN MILES <  
> HX - HEAT INDEX <  
> TC - TEMPERATURE IN CELSIUS <  
> VRB - VARIABLE WIND DIRECTION <  
> <  
>>>>>>>>>>>>>>>>>>>>>>>>>>>> KEY <<<<<<<<<<<<<<<<<<<<<<<<<<<  
 
 
CLICK HERE TO GO TO PREVIOUS BULLETINS.

The Nexlab NY Page
The Nexlab NJ Page
The Nexlab CT Page Main Text Page